Showing default

CBERS 1, 25940

Orbit data source: Space-Track

CBERS 1, 25940 is a CN and BR payload satellite in SSO that was launched on Thu, 14 Oct 1999 UTC via a CHANG ZHENG 4B launch vehicle from the Taiyaun Space Center, China (TSC). Payload-class satellites include a variety of spacecraft equipped with specific instruments for various scientific and technological missions. These include communications satellites like Starlink; space stations such as the ISS; scientific satellites like the Hubble; Earth observation satellites from companies like Planet Labs, Umbra, and HawkEye 360; GPS; miniature CubeSats for education and research; and military/defense satellites.

Loading next visibility...
Identifier
25940, 1999-057A
Orbit
SSO
Country
Flag of UnknownUnknown / CHBZ
Related business
Manufacturer
CAST
Mission
Civil Imaging
Bus & Motor
ZY, AOCS 20N
Mass
1,540 kg wet, ~1,450 kg dry
Launch date (UTC)
1999-10-14 (26 years ago)
Launch vehicle
CHANG ZHENG 4B
Launch site
Taiyaun Space Center, China (TSC)
Object type
Payload
Rocket body
Debris
Shape & HBR
Box + 1 Pan, 4.5 m
Radar Cross Section
9.469 m², Large (>1 m²)

Expand to show TLE details & history
Last TLE update: 11 hours ago

TLE from 11 hours ago
0 CBERS 1
1 25940U 99057A   26037.61988347  .00000295  00000-0  11530-3 0  9993
2 25940  98.8509  43.4897 0005455  34.1233 326.0302 14.36942833378761
Epoch: 2026-02-06T14:52Z
TLE epoch observation values (Epoch: 2026-02-06T14:52:37.931Z)
Latitude
-0.00006°
Longitude
43.57651°
Altitude
768.317 km
Speed
7.472 km/s
True Right ascension
02h 53m 57s
True Declination
0° 00' 00"
Sunlit
Object was in daylight at epoch
Visualization orbit readout
Latitude
Unknown
Longitude
Unknown
Altitude
Unknown
Speed
Unknown
Apparent Right ascension
Unknown
Apparent Declination
Unknown
Sunlit
N/A
Visualization observer readout
Local Sidereal Time
03:47:58
Azimuth
Unknown
Elevation
Unknown
Doppler factor
Unknown
Orbital elements
Apogee altitude
769.657 km
Perigee altitude
761.863 km
Semi-major axis
7,143.897 km
Eccentricity
0.00055
Inclination
98.8509°
RAAN
43.4897°
Arg. of periapsis
34.1233°
True anomaly
325.99525°
Mean anomaly
326.0302°
Eccentric anomaly
326.01273°
Mean motion
3.59452 °/min
Orbital period
100.15 mins
BSTAR
0.0001153
Loading maneuver chart data...
Computing Atmospheric mass density...
Loading historical data...
Loading historical data...
Loading historical data...
Loading historical data...
Loading historical data...
Loading historical data...
Loading historical data...

Documentation

Showing up to 5 results
|